Time,TemperatureF,DewpointF,PressureIn,WindDirection,WindDirectionDegrees,WindSpeedMPH,WindSpeedGustMPH,Humidity,HourlyPrecipIn,Conditions,Clouds,dailyrainin,SoftwareType,DateUTC
2013-02-16 00:00:00,41.7,32.3,29.95,NNE,22,3.0,-999.0,69,0.00,,,0.19,Wunderground v.1.15,2013-02-16 05:00:00,
2013-02-16 00:06:00,41.6,32.2,29.94,NNE,29,3.0,-999.0,69,0.00,,,0.00,Wunderground v.1.15,2013-02-16 05:06:00,
2013-02-16 00:11:00,41.5,32.1,29.95,ENE,58,3.0,-999.0,69,0.00,,,0.00,Wunderground v.1.15,2013-02-16 05:11:00,
2013-02-16 00:16:00,41.4,31.6,29.95,NNE,22,3.0,-999.0,68,0.00,,,0.00,Wunderground v.1.15,2013-02-16 05:16:00,
2013-02-16 00:21:00,41.3,31.5,29.94,North,360,3.0,-999.0,68,0.00,,,0.00,Wunderground v.1.15,2013-02-16 05:21:00,
2013-02-16 00:27:00,41.1,31.3,29.95,North,5,3.0,-999.0,68,0.00,,,0.00,Wunderground v.1.15,2013-02-16 05:27:00,
2013-02-16 00:33:00,41.2,31.1,29.95,NE,36,3.0,-999.0,67,0.00,,,0.00,Wunderground v.1.15,2013-02-16 05:33:00,
2013-02-16 00:39:00,41.1,31.0,29.94,ENE,59,2.0,-999.0,67,0.00,,,0.00,Wunderground v.1.15,2013-02-16 05:39:00,
2013-02-16 00:44:00,41.1,31.3,29.94,NNE,20,3.0,-999.0,68,0.00,,,0.00,Wunderground v.1.15,2013-02-16 05:44:00,
2013-02-16 00:50:00,40.8,31.1,29.95,NNE,23,2.0,-999.0,68,0.00,,,0.00,Wunderground v.1.15,2013-02-16 05:50:00,
2013-02-16 00:56:00,40.6,30.9,29.95,NE,38,2.0,-999.0,68,0.00,,,0.00,Wunderground v.1.15,2013-02-16 05:56:00,
2013-02-16 00:59:00,40.6,30.9,29.95,North,5,3.0,-999.0,68,0.00,,,0.00,Wunderground v.1.15,2013-02-16 05:59:00,
2013-02-16 01:05:00,40.5,30.8,29.95,ENE,68,3.0,-999.0,68,0.00,,,0.00,Wunderground v.1.15,2013-02-16 06:05:00,
2013-02-16 01:11:00,40.5,30.8,29.94,NNE,12,3.0,-999.0,68,0.00,,,0.00,Wunderground v.1.15,2013-02-16 06:11:00,
2013-02-16 01:17:00,40.4,30.7,29.95,North,9,3.0,-999.0,68,0.00,,,0.00,Wunderground v.1.15,2013-02-16 06:17:00,
2013-02-16 01:23:00,40.2,30.5,29.94,NE,34,3.0,-999.0,68,0.00,,,0.00,Wunderground v.1.15,2013-02-16 06:23:00,
2013-02-16 01:28:00,40.1,30.7,29.94,NE,34,3.0,-999.0,69,0.00,,,0.00,Wunderground v.1.15,2013-02-16 06:28:00,
2013-02-16 01:34:00,40.1,30.7,29.94,NE,42,3.0,-999.0,69,0.00,,,0.00,Wunderground v.1.15,2013-02-16 06:34:00,
2013-02-16 01:40:00,40.1,30.7,29.94,NNE,32,3.0,-999.0,69,0.00,,,0.00,Wunderground v.1.15,2013-02-16 06:40:00,
2013-02-16 01:46:00,40.0,30.6,29.94,NE,42,3.0,-999.0,69,0.00,,,0.00,Wunderground v.1.15,2013-02-16 06:46:00,
2013-02-16 01:51:00,39.9,30.9,29.94,NE,38,2.0,-999.0,70,0.00,,,0.00,Wunderground v.1.15,2013-02-16 06:51:00,
2013-02-16 01:57:00,39.8,30.8,29.94,NNE,20,2.0,-999.0,70,0.00,,,0.00,Wunderground v.1.15,2013-02-16 06:57:00,
2013-02-16 02:03:00,39.8,30.5,29.94,North,360,3.0,-999.0,69,0.00,,,0.00,Wunderground v.1.15,2013-02-16 07:03:00,
2013-02-16 02:09:00,39.8,30.8,29.94,NNE,24,3.0,-999.0,70,0.00,,,0.00,Wunderground v.1.15,2013-02-16 07:09:00,
2013-02-16 02:15:00,39.7,30.7,29.94,NNE,30,3.0,-999.0,70,0.00,,,0.00,Wunderground v.1.15,2013-02-16 07:15:00,
2013-02-16 02:21:00,39.7,30.7,29.94,NNE,26,2.0,-999.0,70,0.00,,,0.00,Wunderground v.1.15,2013-02-16 07:21:00,
2013-02-16 02:27:00,39.7,30.7,29.94,NNE,31,1.0,-999.0,70,0.00,,,0.00,Wunderground v.1.15,2013-02-16 07:27:00,
2013-02-16 02:33:00,39.7,30.7,29.94,NE,40,2.0,-999.0,70,0.00,,,0.00,Wunderground v.1.15,2013-02-16 07:33:00,
2013-02-16 02:38:00,39.7,30.7,29.94,NE,35,3.0,-999.0,70,0.00,,,0.00,Wunderground v.1.15,2013-02-16 07:38:00,
2013-02-16 02:44:00,39.5,30.9,29.94,NE,41,2.0,-999.0,71,0.00,,,0.00,Wunderground v.1.15,2013-02-16 07:44:00,
2013-02-16 02:50:00,39.5,30.5,29.93,NE,46,3.0,-999.0,70,0.00,,,0.00,Wunderground v.1.15,2013-02-16 07:50:00,
2013-02-16 02:56:00,39.4,30.8,29.94,North,5,3.0,-999.0,71,0.00,,,0.00,Wunderground v.1.15,2013-02-16 07:56:00,
2013-02-16 03:02:00,39.4,30.8,29.94,NE,41,1.0,-999.0,71,0.00,,,0.00,Wunderground v.1.15,2013-02-16 08:02:00,
2013-02-16 03:08:00,39.4,30.4,29.94,NNW,348,1.0,-999.0,70,0.00,,,0.00,Wunderground v.1.15,2013-02-16 08:08:00,
2013-02-16 03:14:00,39.3,30.3,29.94,NE,36,3.0,-999.0,70,0.00,,,0.00,Wunderground v.1.15,2013-02-16 08:14:00,
2013-02-16 03:19:00,39.2,30.6,29.94,North,9,3.0,-999.0,71,0.00,,,0.00,Wunderground v.1.15,2013-02-16 08:19:00,
2013-02-16 03:25:00,39.0,30.0,29.94,NE,42,3.0,-999.0,70,0.00,,,0.00,Wunderground v.1.15,2013-02-16 08:25:00,
2013-02-16 03:31:00,38.9,30.3,29.94,NNE,32,2.0,-999.0,71,0.00,,,0.00,Wunderground v.1.15,2013-02-16 08:31:00,
2013-02-16 03:37:00,38.9,30.3,29.94,NE,39,2.0,-999.0,71,0.00,,,0.00,Wunderground v.1.15,2013-02-16 08:37:00,
2013-02-16 03:42:00,38.9,30.3,29.94,NE,38,2.0,-999.0,71,0.00,,,0.00,Wunderground v.1.15,2013-02-16 08:42:00,
2013-02-16 03:48:00,38.9,30.3,29.93,NNE,25,3.0,-999.0,71,0.00,,,0.00,Wunderground v.1.15,2013-02-16 08:48:00,
2013-02-16 03:54:00,38.9,29.9,29.93,NNE,27,2.0,-999.0,70,0.00,,,0.00,Wunderground v.1.15,2013-02-16 08:54:00,
2013-02-16 04:00:00,38.8,29.8,29.93,NE,46,2.0,-999.0,70,0.00,,,0.00,Wunderground v.1.15,2013-02-16 09:00:00,
2013-02-16 04:06:00,38.9,29.9,29.93,NNE,22,3.0,-999.0,70,0.00,,,0.00,Wunderground v.1.15,2013-02-16 09:06:00,
2013-02-16 04:12:00,38.9,29.6,29.93,NE,39,3.0,-999.0,69,0.00,,,0.00,Wunderground v.1.15,2013-02-16 09:12:00,
2013-02-16 04:18:00,38.8,29.5,29.93,NE,37,3.0,-999.0,69,0.00,,,0.00,Wunderground v.1.15,2013-02-16 09:18:00,
2013-02-16 04:23:00,38.8,29.8,29.93,NNE,24,1.0,-999.0,70,0.00,,,0.00,Wunderground v.1.15,2013-02-16 09:23:00,
2013-02-16 04:29:00,38.9,29.2,29.92,NNE,28,2.0,-999.0,68,0.00,,,0.00,Wunderground v.1.15,2013-02-16 09:29:00,
2013-02-16 04:35:00,38.9,29.2,29.93,NNE,26,3.0,-999.0,68,0.00,,,0.00,Wunderground v.1.15,2013-02-16 09:35:00,
2013-02-16 04:41:00,38.9,29.2,29.93,NNE,22,2.0,-999.0,68,0.00,,,0.00,Wunderground v.1.15,2013-02-16 09:41:00,
2013-02-16 04:46:00,38.8,29.1,29.92,NE,42,2.0,-999.0,68,0.00,,,0.00,Wunderground v.1.15,2013-02-16 09:46:00,
2013-02-16 04:52:00,38.8,29.1,29.93,NNE,17,2.0,-999.0,68,0.00,,,0.00,Wunderground v.1.15,2013-02-16 09:52:00,
2013-02-16 04:58:00,38.8,29.1,29.92,NNE,28,2.0,-999.0,68,0.00,,,0.00,Wunderground v.1.15,2013-02-16 09:58:00,
2013-02-16 05:04:00,38.7,29.0,29.93,NNE,21,2.0,-999.0,68,0.00,,,0.00,Wunderground v.1.15,2013-02-16 10:04:00,
2013-02-16 05:10:00,38.7,29.4,29.93,NNE,24,1.0,-999.0,69,0.00,,,0.00,Wunderground v.1.15,2013-02-16 10:10:00,
2013-02-16 05:16:00,38.7,29.4,29.93,ENE,59,1.0,-999.0,69,0.00,,,0.00,Wunderground v.1.15,2013-02-16 10:16:00,
2013-02-16 05:22:00,38.6,29.3,29.93,NNE,25,1.0,-999.0,69,0.00,,,0.00,Wunderground v.1.15,2013-02-16 10:22:00,
2013-02-16 05:27:00,38.6,29.3,29.93,NNE,32,1.0,-999.0,69,0.00,,,0.00,Wunderground v.1.15,2013-02-16 10:27:00,
2013-02-16 05:33:00,38.5,29.6,29.93,NNE,17,1.0,-999.0,70,0.00,,,0.00,Wunderground v.1.15,2013-02-16 10:33:00,
2013-02-16 05:39:00,38.4,29.5,29.93,NNE,20,1.0,-999.0,70,0.00,,,0.00,Wunderground v.1.15,2013-02-16 10:39:00,
2013-02-16 05:45:00,38.4,29.8,29.92,NE,43,1.0,-999.0,71,0.00,,,0.00,Wunderground v.1.15,2013-02-16 10:45:00,
2013-02-16 05:50:00,38.3,29.7,29.92,NE,35,1.0,-999.0,71,0.00,,,0.00,Wunderground v.1.15,2013-02-16 10:50:00,
2013-02-16 05:56:00,38.3,29.7,29.93,North,10,1.0,-999.0,71,0.00,,,0.00,Wunderground v.1.15,2013-02-16 10:56:00,
2013-02-16 06:02:00,38.2,30.0,29.93,North,5,0.0,-999.0,72,0.00,,,0.00,Wunderground v.1.15,2013-02-16 11:02:00,
2013-02-16 06:08:00,38.2,30.0,29.93,NNE,19,0.0,-999.0,72,0.00,,,0.00,Wunderground v.1.15,2013-02-16 11:08:00,
2013-02-16 06:14:00,38.2,29.3,29.93,NE,38,1.0,-999.0,70,0.00,,,0.00,Wunderground v.1.15,2013-02-16 11:14:00,
2013-02-16 06:20:00,38.3,28.7,29.93,NE,40,2.0,-999.0,68,0.00,,,0.00,Wunderground v.1.15,2013-02-16 11:20:00,
2013-02-16 06:26:00,38.4,27.7,29.93,NE,40,2.0,-999.0,65,0.00,,,0.00,Wunderground v.1.15,2013-02-16 11:26:00,
2013-02-16 06:31:00,38.4,28.0,29.93,NNE,30,1.0,-999.0,66,0.00,,,0.00,Wunderground v.1.15,2013-02-16 11:31:00,
2013-02-16 06:37:00,38.4,28.0,29.93,North,360,1.0,-999.0,66,0.00,,,0.00,Wunderground v.1.15,2013-02-16 11:37:00,
2013-02-16 06:43:00,38.3,27.9,29.93,NNE,30,1.0,-999.0,66,0.00,,,0.00,Wunderground v.1.15,2013-02-16 11:43:00,
2013-02-16 06:49:00,38.3,28.7,29.93,NNW,348,2.0,-999.0,68,0.00,,,0.00,Wunderground v.1.15,2013-02-16 11:49:00,
2013-02-16 06:54:00,37.9,29.0,29.94,NNE,17,3.0,-999.0,70,0.00,,,0.00,Wunderground v.1.15,2013-02-16 11:54:00,
2013-02-16 07:00:00,36.8,29.0,29.94,NE,37,6.0,-999.0,73,0.00,,,0.00,Wunderground v.1.15,2013-02-16 12:00:00,
2013-02-16 07:06:00,36.1,29.3,29.94,NNE,17,6.0,-999.0,76,0.00,,,0.00,Wunderground v.1.15,2013-02-16 12:06:00,
2013-02-16 07:12:00,35.7,29.5,29.94,NE,46,4.0,-999.0,78,0.00,,,0.00,Wunderground v.1.15,2013-02-16 12:12:00,
2013-02-16 07:18:00,35.4,29.8,29.94,North,360,4.0,-999.0,80,0.00,,,0.00,Wunderground v.1.15,2013-02-16 12:18:00,
2013-02-16 07:24:00,35.4,29.5,29.94,North,350,3.0,-999.0,79,0.00,,,0.00,Wunderground v.1.15,2013-02-16 12:24:00,
2013-02-16 07:30:00,35.4,29.5,29.94,North,349,3.0,-999.0,79,0.00,,,0.00,Wunderground v.1.15,2013-02-16 12:30:00,
2013-02-16 07:35:00,35.5,29.9,29.94,NNE,17,2.0,-999.0,80,0.00,,,0.00,Wunderground v.1.15,2013-02-16 12:35:00,
2013-02-16 07:41:00,35.6,29.4,29.94,NNW,348,1.0,-999.0,78,0.00,,,0.00,Wunderground v.1.15,2013-02-16 12:41:00,
2013-02-16 07:47:00,35.6,29.4,29.94,NE,50,2.0,-999.0,78,0.00,,,0.00,Wunderground v.1.15,2013-02-16 12:47:00,
2013-02-16 07:53:00,35.6,29.1,29.94,North,5,2.0,-999.0,77,0.00,,,0.00,Wunderground v.1.15,2013-02-16 12:53:00,
2013-02-16 07:58:00,35.6,29.1,29.94,North,355,2.0,-999.0,77,0.00,,,0.00,Wunderground v.1.15,2013-02-16 12:58:00,
2013-02-16 08:04:00,35.7,29.5,29.94,ENE,57,1.0,-999.0,78,0.00,,,0.00,Wunderground v.1.15,2013-02-16 13:04:00,
2013-02-16 08:10:00,35.6,29.7,29.94,NNE,19,1.0,-999.0,79,0.00,,,0.00,Wunderground v.1.15,2013-02-16 13:10:00,
2013-02-16 08:16:00,35.6,29.4,29.94,NNE,18,2.0,-999.0,78,0.00,,,0.00,Wunderground v.1.15,2013-02-16 13:16:00,
2013-02-16 08:22:00,35.6,29.7,29.94,North,360,2.0,-999.0,79,0.00,,,0.00,Wunderground v.1.15,2013-02-16 13:22:00,
2013-02-16 08:28:00,35.3,29.7,29.94,NNE,13,2.0,-999.0,80,0.00,,,0.00,Wunderground v.1.15,2013-02-16 13:28:00,
2013-02-16 08:34:00,35.2,30.0,29.94,NE,36,2.0,-999.0,81,0.00,,,0.00,Wunderground v.1.15,2013-02-16 13:34:00,
2013-02-16 08:39:00,35.3,30.4,29.94,NNE,15,2.0,-999.0,82,0.00,,,0.00,Wunderground v.1.15,2013-02-16 13:39:00,
2013-02-16 08:45:00,35.3,30.4,29.95,NNE,33,2.0,-999.0,82,0.00,,,0.00,Wunderground v.1.15,2013-02-16 13:45:00,
2013-02-16 08:51:00,35.2,30.6,29.95,North,355,2.0,-999.0,83,0.00,,,0.00,Wunderground v.1.15,2013-02-16 13:51:00,
2013-02-16 08:57:00,35.0,30.7,29.94,NNE,24,3.0,-999.0,84,0.00,,,0.00,Wunderground v.1.15,2013-02-16 13:57:00,
2013-02-16 09:02:00,34.8,30.5,29.94,NE,50,3.0,-999.0,84,0.00,,,0.00,Wunderground v.1.15,2013-02-16 14:02:00,
2013-02-16 09:08:00,34.4,30.4,29.94,NNE,19,4.0,-999.0,85,0.00,,,0.00,Wunderground v.1.15,2013-02-16 14:08:00,
2013-02-16 09:14:00,34.0,30.5,29.94,NE,35,3.0,-999.0,87,0.00,,,0.00,Wunderground v.1.15,2013-02-16 14:14:00,
2013-02-16 09:20:00,33.7,30.5,29.94,NNE,19,2.0,-999.0,88,0.00,,,0.00,Wunderground v.1.15,2013-02-16 14:20:00,
2013-02-16 09:26:00,33.2,30.6,29.93,NNE,30,2.0,-999.0,90,0.00,,,0.00,Wunderground v.1.15,2013-02-16 14:26:00,
2013-02-16 09:32:00,32.9,30.0,29.93,NE,36,4.0,-999.0,89,0.00,,,0.00,Wunderground v.1.15,2013-02-16 14:32:00,
2013-02-16 09:38:00,32.8,29.9,29.92,ENE,63,4.0,-999.0,89,0.00,,,0.00,Wunderground v.1.15,2013-02-16 14:38:00,
2013-02-16 09:43:00,33.0,30.4,29.92,NNE,33,4.0,-999.0,90,0.00,,,0.01,Wunderground v.1.15,2013-02-16 14:43:00,
2013-02-16 09:49:00,33.4,30.8,29.92,ESE,121,2.0,-999.0,90,0.00,,,0.01,Wunderground v.1.15,2013-02-16 14:49:00,
2013-02-16 09:55:00,33.5,30.3,29.92,North,5,2.0,-999.0,88,0.00,,,0.01,Wunderground v.1.15,2013-02-16 14:55:00,
2013-02-16 10:01:00,33.8,30.6,29.92,NE,37,1.0,-999.0,88,0.00,,,0.01,Wunderground v.1.15,2013-02-16 15:01:00,
2013-02-16 10:07:00,33.9,30.7,29.92,NNE,28,1.0,-999.0,88,0.00,,,0.01,Wunderground v.1.15,2013-02-16 15:07:00,
2013-02-16 10:13:00,34.1,30.6,29.93,South,177,0.0,-999.0,87,0.00,,,0.01,Wunderground v.1.15,2013-02-16 15:13:00,
2013-02-16 10:19:00,34.2,31.0,29.93,NNE,20,0.0,-999.0,88,0.00,,,0.01,Wunderground v.1.15,2013-02-16 15:19:00,
2013-02-16 10:25:00,34.3,30.5,29.92,East,80,1.0,-999.0,86,0.00,,,0.01,Wunderground v.1.15,2013-02-16 15:25:00,
2013-02-16 10:30:00,34.5,30.7,29.93,NNE,19,0.0,-999.0,86,0.00,,,0.01,Wunderground v.1.15,2013-02-16 15:30:00,
2013-02-16 10:36:00,34.6,30.8,29.92,NNE,21,0.0,-999.0,86,0.00,,,0.01,Wunderground v.1.15,2013-02-16 15:36:00,
2013-02-16 10:42:00,34.8,31.0,29.92,East,98,0.0,-999.0,86,0.00,,,0.01,Wunderground v.1.15,2013-02-16 15:42:00,
2013-02-16 10:48:00,35.1,31.3,29.92,ENE,64,0.0,-999.0,86,0.00,,,0.01,Wunderground v.1.15,2013-02-16 15:48:00,
2013-02-16 10:53:00,35.2,31.1,29.92,East,82,0.0,-999.0,85,0.00,,,0.01,Wunderground v.1.15,2013-02-16 15:53:00,
2013-02-16 10:59:00,35.4,31.0,29.92,East,100,0.0,-999.0,84,0.00,,,0.01,Wunderground v.1.15,2013-02-16 15:59:00,
2013-02-16 11:05:00,35.4,31.0,29.92,SSE,157,0.0,-999.0,84,0.00,,,0.01,Wunderground v.1.15,2013-02-16 16:05:00,
2013-02-16 11:11:00,35.4,31.3,29.92,NE,48,0.0,-999.0,85,0.00,,,0.01,Wunderground v.1.15,2013-02-16 16:11:00,
2013-02-16 11:17:00,35.4,31.3,29.93,SE,133,0.0,-999.0,85,0.00,,,0.01,Wunderground v.1.15,2013-02-16 16:17:00,
2013-02-16 11:23:00,35.4,31.9,29.92,ENE,69,0.0,-999.0,87,0.00,,,0.01,Wunderground v.1.15,2013-02-16 16:23:00,
2013-02-16 11:29:00,35.5,31.7,29.92,ENE,69,0.0,-999.0,86,0.00,,,0.01,Wunderground v.1.15,2013-02-16 16:29:00,
2013-02-16 11:34:00,35.4,31.6,29.92,ENE,71,0.0,-999.0,86,0.00,,,0.01,Wunderground v.1.15,2013-02-16 16:34:00,
2013-02-16 11:40:00,35.5,32.0,29.91,NNE,29,0.0,-999.0,87,0.00,,,0.01,Wunderground v.1.15,2013-02-16 16:40:00,
2013-02-16 11:46:00,35.1,31.9,29.90,NNE,26,1.0,-999.0,88,0.00,,,0.01,Wunderground v.1.15,2013-02-16 16:46:00,
2013-02-16 11:52:00,35.0,32.1,29.90,North,355,1.0,-999.0,89,0.00,,,0.01,Wunderground v.1.15,2013-02-16 16:52:00,
2013-02-16 11:57:00,34.8,31.9,29.90,North,5,2.0,-999.0,89,0.00,,,0.01,Wunderground v.1.15,2013-02-16 16:57:00,
2013-02-16 12:03:00,34.7,31.8,29.90,North,351,2.0,-999.0,89,0.00,,,0.01,Wunderground v.1.15,2013-02-16 17:03:00,
2013-02-16 12:09:00,34.8,31.3,29.90,NNE,29,2.0,-999.0,87,0.00,,,0.01,Wunderground v.1.15,2013-02-16 17:09:00,
2013-02-16 12:15:00,34.7,31.8,29.90,NE,43,2.0,-999.0,89,0.00,,,0.01,Wunderground v.1.15,2013-02-16 17:15:00,
2013-02-16 12:21:00,34.8,31.3,29.90,ENE,59,2.0,-999.0,87,0.00,,,0.01,Wunderground v.1.15,2013-02-16 17:21:00,
2013-02-16 12:27:00,34.7,31.2,29.89,NNE,16,2.0,-999.0,87,0.00,,,0.01,Wunderground v.1.15,2013-02-16 17:27:00,
2013-02-16 12:33:00,34.6,31.4,29.89,NNW,347,2.0,-999.0,88,0.00,,,0.01,Wunderground v.1.15,2013-02-16 17:33:00,
2013-02-16 12:38:00,34.6,31.1,29.89,NNW,338,2.0,-999.0,87,0.00,,,0.01,Wunderground v.1.15,2013-02-16 17:38:00,
2013-02-16 12:44:00,34.5,31.0,29.88,NNW,346,2.0,-999.0,87,0.00,,,0.01,Wunderground v.1.15,2013-02-16 17:44:00,
2013-02-16 12:50:00,34.3,30.8,29.88,NNE,17,2.0,-999.0,87,0.00,,,0.01,Wunderground v.1.15,2013-02-16 17:50:00,
2013-02-16 12:56:00,34.1,30.6,29.88,NNE,18,2.0,-999.0,87,0.00,,,0.01,Wunderground v.1.15,2013-02-16 17:56:00,
2013-02-16 13:01:00,34.1,30.6,29.88,NNW,336,2.0,-999.0,87,0.00,,,0.01,Wunderground v.1.15,2013-02-16 18:01:00,
2013-02-16 13:07:00,34.1,30.9,29.88,NNE,24,2.0,-999.0,88,0.00,,,0.01,Wunderground v.1.15,2013-02-16 18:07:00,
2013-02-16 13:13:00,33.7,30.8,29.88,NNW,328,3.0,-999.0,89,0.00,,,0.02,Wunderground v.1.15,2013-02-16 18:13:00,
2013-02-16 13:19:00,33.5,30.9,29.87,NNW,348,4.0,-999.0,90,0.00,,,0.02,Wunderground v.1.15,2013-02-16 18:19:00,
2013-02-16 13:24:00,33.4,30.8,29.87,North,350,2.0,-999.0,90,0.00,,,0.02,Wunderground v.1.15,2013-02-16 18:24:00,
2013-02-16 13:30:00,33.4,31.1,29.86,North,360,2.0,-999.0,91,0.00,,,0.02,Wunderground v.1.15,2013-02-16 18:30:00,
2013-02-16 13:36:00,33.4,31.1,29.87,NW,321,2.0,-999.0,91,0.00,,,0.02,Wunderground v.1.15,2013-02-16 18:36:00,
2013-02-16 13:42:00,33.6,31.3,29.86,North,355,3.0,-999.0,91,0.00,,,0.02,Wunderground v.1.15,2013-02-16 18:42:00,
2013-02-16 13:47:00,33.7,30.8,29.86,North,9,3.0,-999.0,89,0.00,,,0.02,Wunderground v.1.15,2013-02-16 18:47:00,
2013-02-16 13:53:00,33.9,31.0,29.86,NNW,340,2.0,-999.0,89,0.00,,,0.02,Wunderground v.1.15,2013-02-16 18:53:00,
2013-02-16 13:59:00,34.2,31.0,29.87,NNW,346,1.0,-999.0,88,0.00,,,0.02,Wunderground v.1.15,2013-02-16 18:59:00,
2013-02-16 14:05:00,34.3,30.3,29.86,North,360,0.0,-999.0,85,0.00,,,0.02,Wunderground v.1.15,2013-02-16 19:05:00,
2013-02-16 14:10:00,34.4,30.4,29.85,NNE,32,0.0,-999.0,85,0.00,,,0.02,Wunderground v.1.15,2013-02-16 19:10:00,
2013-02-16 14:16:00,34.6,30.8,29.85,NE,39,0.0,-999.0,86,0.00,,,0.02,Wunderground v.1.15,2013-02-16 19:16:00,
2013-02-16 14:22:00,34.8,30.8,29.84,SSE,161,0.0,-999.0,85,0.00,,,0.02,Wunderground v.1.15,2013-02-16 19:22:00,
2013-02-16 14:27:00,35.0,30.7,29.85,East,98,1.0,-999.0,84,0.00,,,0.02,Wunderground v.1.15,2013-02-16 19:27:00,
2013-02-16 14:33:00,35.1,30.5,29.85,NE,42,1.0,-999.0,83,0.00,,,0.02,Wunderground v.1.15,2013-02-16 19:33:00,
2013-02-16 14:39:00,35.2,30.9,29.85,ENE,63,0.0,-999.0,84,0.00,,,0.02,Wunderground v.1.15,2013-02-16 19:39:00,
2013-02-16 14:45:00,35.3,30.7,29.84,ESE,122,0.0,-999.0,83,0.00,,,0.02,Wunderground v.1.15,2013-02-16 19:45:00,
2013-02-16 14:50:00,35.4,30.5,29.84,SE,140,0.0,-999.0,82,0.00,,,0.02,Wunderground v.1.15,2013-02-16 19:50:00,
2013-02-16 14:56:00,35.5,30.5,29.83,ENE,63,0.0,-999.0,82,0.00,,,0.02,Wunderground v.1.15,2013-02-16 19:56:00,
2013-02-16 15:02:00,35.4,30.8,29.83,NNE,25,1.0,-999.0,83,0.00,,,0.02,Wunderground v.1.15,2013-02-16 20:02:00,
2013-02-16 15:08:00,35.4,30.8,29.83,NE,42,2.0,-999.0,83,0.00,,,0.02,Wunderground v.1.15,2013-02-16 20:08:00,
2013-02-16 15:13:00,35.2,31.1,29.84,NE,53,2.0,-999.0,85,0.00,,,0.02,Wunderground v.1.15,2013-02-16 20:13:00,
2013-02-16 15:19:00,35.2,31.1,29.84,ENE,73,1.0,-999.0,85,0.00,,,0.02,Wunderground v.1.15,2013-02-16 20:19:00,
2013-02-16 15:25:00,35.4,31.3,29.84,SE,146,0.0,-999.0,85,0.00,,,0.02,Wunderground v.1.15,2013-02-16 20:25:00,
2013-02-16 15:31:00,35.3,31.2,29.83,NE,41,1.0,-999.0,85,0.00,,,0.02,Wunderground v.1.15,2013-02-16 20:31:00,
2013-02-16 15:37:00,35.0,30.9,29.83,North,5,1.0,-999.0,85,0.00,,,0.02,Wunderground v.1.15,2013-02-16 20:37:00,
2013-02-16 15:43:00,34.4,31.2,29.84,NE,34,2.0,-999.0,88,0.00,,,0.02,Wunderground v.1.15,2013-02-16 20:43:00,
2013-02-16 15:49:00,33.1,30.5,29.84,North,355,3.0,-999.0,90,0.00,,,0.02,Wunderground v.1.15,2013-02-16 20:49:00,
2013-02-16 15:54:00,32.2,29.9,29.85,NNE,31,3.0,-999.0,91,0.00,,,0.02,Wunderground v.1.15,2013-02-16 20:54:00,
2013-02-16 16:00:00,31.7,29.9,29.85,NNE,17,3.0,-999.0,93,0.00,,,0.02,Wunderground v.1.15,2013-02-16 21:00:00,
2013-02-16 16:06:00,31.5,29.7,29.84,NNE,33,2.0,-999.0,93,0.00,,,0.02,Wunderground v.1.15,2013-02-16 21:06:00,
2013-02-16 16:12:00,31.6,29.8,29.84,NNE,25,2.0,-999.0,93,0.00,,,0.02,Wunderground v.1.15,2013-02-16 21:12:00,
2013-02-16 16:17:00,31.7,29.9,29.84,NE,34,2.0,-999.0,93,0.00,,,0.02,Wunderground v.1.15,2013-02-16 21:17:00,
2013-02-16 16:23:00,32.0,30.2,29.84,NNE,14,2.0,-999.0,93,0.00,,,0.02,Wunderground v.1.15,2013-02-16 21:23:00,
2013-02-16 16:29:00,32.7,30.6,29.83,NE,43,1.0,-999.0,92,0.00,,,0.02,Wunderground v.1.15,2013-02-16 21:29:00,
2013-02-16 16:35:00,33.3,31.0,29.83,NE,40,2.0,-999.0,91,0.00,,,0.02,Wunderground v.1.15,2013-02-16 21:35:00,
2013-02-16 16:40:00,33.7,31.1,29.84,North,10,2.0,-999.0,90,0.00,,,0.03,Wunderground v.1.15,2013-02-16 21:40:00,
2013-02-16 16:46:00,34.3,31.4,29.83,North,350,2.0,-999.0,89,0.00,,,0.03,Wunderground v.1.15,2013-02-16 21:46:00,
2013-02-16 16:52:00,34.2,30.2,29.83,NNE,22,3.0,-999.0,85,0.06,,,0.04,Wunderground v.1.15,2013-02-16 21:52:00,
2013-02-16 16:57:00,34.4,30.1,29.83,NNW,342,3.0,-999.0,84,0.06,,,0.04,Wunderground v.1.15,2013-02-16 21:57:00,
2013-02-16 17:03:00,34.7,30.1,29.84,North,350,3.0,-999.0,83,0.04,,,0.04,Wunderground v.1.15,2013-02-16 22:03:00,
2013-02-16 17:09:00,35.0,30.7,29.84,NNE,13,2.0,-999.0,84,0.00,,,0.04,Wunderground v.1.15,2013-02-16 22:09:00,
2013-02-16 17:15:00,35.1,29.9,29.83,NNE,20,2.0,-999.0,81,0.00,,,0.04,Wunderground v.1.15,2013-02-16 22:15:00,
2013-02-16 17:20:00,35.1,29.6,29.84,NNW,333,2.0,-999.0,80,0.00,,,0.04,Wunderground v.1.15,2013-02-16 22:20:00,
2013-02-16 17:26:00,35.1,29.6,29.84,NNW,333,1.0,-999.0,80,0.00,,,0.04,Wunderground v.1.15,2013-02-16 22:26:00,
2013-02-16 17:32:00,34.9,29.4,29.84,NNW,333,0.0,-999.0,80,0.00,,,0.04,Wunderground v.1.15,2013-02-16 22:32:00,
2013-02-16 17:38:00,34.6,29.1,29.84,NE,39,0.0,-999.0,80,0.00,,,0.04,Wunderground v.1.15,2013-02-16 22:38:00,
2013-02-16 17:43:00,34.4,28.9,29.84,North,360,0.0,-999.0,80,0.00,,,0.04,Wunderground v.1.15,2013-02-16 22:43:00,
2013-02-16 17:49:00,34.1,29.5,29.84,North,360,0.0,-999.0,83,0.00,,,0.04,Wunderground v.1.15,2013-02-16 22:49:00,
2013-02-16 17:55:00,33.8,28.3,29.84,North,5,0.0,-999.0,80,0.00,,,0.04,Wunderground v.1.15,2013-02-16 22:55:00,
2013-02-16 18:01:00,33.9,26.8,29.85,NE,36,1.0,-999.0,75,0.00,,,0.04,Wunderground v.1.15,2013-02-16 23:01:00,
2013-02-16 18:07:00,34.1,26.3,29.85,NNW,333,1.0,-999.0,73,0.00,,,0.04,Wunderground v.1.15,2013-02-16 23:07:00,
2013-02-16 18:13:00,34.2,25.1,29.85,North,5,2.0,-999.0,69,0.00,,,0.04,Wunderground v.1.15,2013-02-16 23:13:00,
2013-02-16 18:19:00,34.2,25.1,29.86,North,5,3.0,-999.0,69,0.00,,,0.04,Wunderground v.1.15,2013-02-16 23:19:00,
2013-02-16 18:24:00,34.1,24.3,29.86,North,355,3.0,-999.0,67,0.00,,,0.04,Wunderground v.1.15,2013-02-16 23:24:00,
2013-02-16 18:30:00,34.0,24.5,29.86,NNW,342,3.0,-999.0,68,0.00,,,0.04,Wunderground v.1.15,2013-02-16 23:30:00,
2013-02-16 18:36:00,34.0,23.1,29.86,North,355,4.0,-999.0,64,0.00,,,0.04,Wunderground v.1.15,2013-02-16 23:36:00,
2013-02-16 18:42:00,34.0,22.3,29.86,North,350,5.0,-999.0,62,0.00,,,0.04,Wunderground v.1.15,2013-02-16 23:42:00,
2013-02-16 18:47:00,34.0,22.3,29.87,NNE,24,5.0,-999.0,62,0.00,,,0.04,Wunderground v.1.15,2013-02-16 23:47:00,
2013-02-16 18:53:00,33.9,22.2,29.87,North,5,4.0,-999.0,62,0.00,,,0.04,Wunderground v.1.15,2013-02-16 23:53:00,
2013-02-16 18:59:00,33.8,22.5,29.87,NNE,33,3.0,-999.0,63,0.00,,,0.04,Wunderground v.1.15,2013-02-16 23:59:00,
2013-02-16 19:05:00,33.7,22.1,29.87,NE,46,2.0,-999.0,62,0.00,,,0.04,Wunderground v.1.15,2013-02-17 00:05:00,
2013-02-16 19:11:00,33.4,22.5,29.88,North,5,2.0,-999.0,64,0.00,,,0.04,Wunderground v.1.15,2013-02-17 00:11:00,
2013-02-16 19:17:00,33.2,21.2,29.88,NNE,26,3.0,-999.0,61,0.00,,,0.04,Wunderground v.1.15,2013-02-17 00:17:00,
2013-02-16 19:23:00,33.2,20.8,29.88,NNE,13,4.0,-999.0,60,0.00,,,0.04,Wunderground v.1.15,2013-02-17 00:23:00,
2013-02-16 19:29:00,33.0,19.8,29.88,NE,46,4.0,-999.0,58,0.00,,,0.04,Wunderground v.1.15,2013-02-17 00:29:00,
2013-02-16 19:34:00,33.1,18.7,29.88,NNE,13,4.0,-999.0,55,0.00,,,0.04,Wunderground v.1.15,2013-02-17 00:34:00,
2013-02-16 19:40:00,33.1,17.8,29.89,NNW,344,5.0,-999.0,53,0.00,,,0.04,Wunderground v.1.15,2013-02-17 00:40:00,
2013-02-16 19:46:00,33.0,17.7,29.89,North,355,6.0,-999.0,53,0.00,,,0.04,Wunderground v.1.15,2013-02-17 00:46:00,
2013-02-16 19:52:00,32.9,17.6,29.89,North,5,5.0,-999.0,53,0.00,,,0.04,Wunderground v.1.15,2013-02-17 00:52:00,
2013-02-16 19:58:00,32.8,18.0,29.89,NNW,343,5.0,-999.0,54,0.00,,,0.04,Wunderground v.1.15,2013-02-17 00:58:00,
2013-02-16 20:04:00,32.7,17.0,29.89,North,360,5.0,-999.0,52,0.00,,,0.04,Wunderground v.1.15,2013-02-17 01:04:00,
2013-02-16 20:10:00,32.7,17.4,29.89,North,349,6.0,-999.0,53,0.00,,,0.04,Wunderground v.1.15,2013-02-17 01:10:00,
2013-02-16 20:15:00,32.6,17.3,29.90,NNW,348,7.0,-999.0,53,0.00,,,0.04,Wunderground v.1.15,2013-02-17 01:15:00,
2013-02-16 20:21:00,32.5,17.2,29.90,NNW,342,6.0,-999.0,53,0.00,,,0.04,Wunderground v.1.15,2013-02-17 01:21:00,
2013-02-16 20:27:00,32.4,16.7,29.90,North,360,7.0,-999.0,52,0.00,,,0.04,Wunderground v.1.15,2013-02-17 01:27:00,
2013-02-16 20:33:00,32.1,17.3,29.91,NNW,342,8.0,-999.0,54,0.00,,,0.04,Wunderground v.1.15,2013-02-17 01:33:00,
2013-02-16 20:38:00,32.1,16.4,29.91,North,9,9.0,-999.0,52,0.00,,,0.04,Wunderground v.1.15,2013-02-17 01:38:00,
2013-02-16 20:44:00,31.8,16.6,29.91,NNW,343,8.0,-999.0,53,0.00,,,0.04,Wunderground v.1.15,2013-02-17 01:44:00,
2013-02-16 20:50:00,31.7,16.5,29.91,NNW,348,7.0,-999.0,53,0.00,,,0.04,Wunderground v.1.15,2013-02-17 01:50:00,
2013-02-16 20:56:00,31.5,16.7,29.92,NNW,330,6.0,-999.0,54,0.00,,,0.04,Wunderground v.1.15,2013-02-17 01:56:00,
2013-02-16 21:02:00,31.3,17.4,29.92,NNW,342,5.0,-999.0,56,0.00,,,0.04,Wunderground v.1.15,2013-02-17 02:02:00,
2013-02-16 21:08:00,31.4,15.8,29.92,North,360,6.0,-999.0,52,0.00,,,0.04,Wunderground v.1.15,2013-02-17 02:08:00,
2013-02-16 21:14:00,31.2,16.0,29.92,NNW,343,6.0,-999.0,53,0.00,,,0.04,Wunderground v.1.15,2013-02-17 02:14:00,
2013-02-16 21:19:00,31.2,15.6,29.92,NNW,337,6.0,-999.0,52,0.00,,,0.04,Wunderground v.1.15,2013-02-17 02:19:00,
2013-02-16 21:25:00,31.1,15.1,29.92,NNE,28,6.0,-999.0,51,0.00,,,0.04,Wunderground v.1.15,2013-02-17 02:25:00,
2013-02-16 21:31:00,31.0,15.0,29.92,NNE,12,6.0,-999.0,51,0.00,,,0.04,Wunderground v.1.15,2013-02-17 02:31:00,
2013-02-16 21:37:00,31.0,15.0,29.93,NNW,348,7.0,-999.0,51,0.00,,,0.04,Wunderground v.1.15,2013-02-17 02:37:00,
2013-02-16 21:42:00,30.8,14.3,29.93,North,5,8.0,-999.0,50,0.00,,,0.04,Wunderground v.1.15,2013-02-17 02:42:00,
2013-02-16 21:48:00,30.8,14.3,29.93,NNW,333,8.0,-999.0,50,0.00,,,0.04,Wunderground v.1.15,2013-02-17 02:48:00,
2013-02-16 21:54:00,30.6,15.0,29.93,NNW,342,7.0,-999.0,52,0.00,,,0.04,Wunderground v.1.15,2013-02-17 02:54:00,
2013-02-16 22:00:00,30.5,14.5,29.93,NNE,19,6.0,-999.0,51,0.00,,,0.04,Wunderground v.1.15,2013-02-17 03:00:00,
2013-02-16 22:06:00,30.4,14.9,29.93,North,350,6.0,-999.0,52,0.00,,,0.04,Wunderground v.1.15,2013-02-17 03:06:00,
2013-02-16 22:11:00,30.1,15.0,29.93,NNE,18,5.0,-999.0,53,0.00,,,0.04,Wunderground v.1.15,2013-02-17 03:11:00,
2013-02-16 22:17:00,29.8,15.2,29.93,NNW,329,3.0,-999.0,54,0.00,,,0.04,Wunderground v.1.15,2013-02-17 03:17:00,
2013-02-16 22:23:00,29.4,15.6,29.93,NW,317,3.0,-999.0,56,0.00,,,0.04,Wunderground v.1.15,2013-02-17 03:23:00,
2013-02-16 22:29:00,29.2,15.8,29.94,NNW,340,3.0,-999.0,57,0.00,,,0.04,Wunderground v.1.15,2013-02-17 03:29:00,
2013-02-16 22:34:00,29.1,14.9,29.94,NNW,327,3.0,-999.0,55,0.00,,,0.04,Wunderground v.1.15,2013-02-17 03:34:00,
2013-02-16 22:40:00,29.0,15.2,29.94,NW,319,4.0,-999.0,56,0.00,,,0.04,Wunderground v.1.15,2013-02-17 03:40:00,
2013-02-16 22:46:00,29.0,15.2,29.94,NNW,328,4.0,-999.0,56,0.00,,,0.04,Wunderground v.1.15,2013-02-17 03:46:00,
2013-02-16 22:52:00,28.8,15.1,29.94,North,349,4.0,-999.0,56,0.00,,,0.04,Wunderground v.1.15,2013-02-17 03:52:00,
2013-02-16 22:58:00,29.0,14.8,29.94,North,355,5.0,-999.0,55,0.00,,,0.04,Wunderground v.1.15,2013-02-17 03:58:00,
2013-02-16 23:04:00,29.4,13.9,29.94,NNW,348,7.0,-999.0,52,0.00,,,0.04,Wunderground v.1.15,2013-02-17 04:04:00,
2013-02-16 23:10:00,29.5,14.0,29.94,NNE,18,7.0,-999.0,52,0.00,,,0.04,Wunderground v.1.15,2013-02-17 04:10:00,
2013-02-16 23:15:00,29.4,13.9,29.94,North,11,6.0,-999.0,52,0.00,,,0.04,Wunderground v.1.15,2013-02-17 04:15:00,
2013-02-16 23:21:00,29.4,14.4,29.94,NNW,329,5.0,-999.0,53,0.00,,,0.04,Wunderground v.1.15,2013-02-17 04:21:00,
2013-02-16 23:27:00,29.2,14.2,29.94,NNW,348,5.0,-999.0,53,0.00,,,0.04,Wunderground v.1.15,2013-02-17 04:27:00,
2013-02-16 23:33:00,29.0,14.4,29.94,NW,319,5.0,-999.0,54,0.00,,,0.04,Wunderground v.1.15,2013-02-17 04:33:00,
2013-02-16 23:38:00,28.8,14.6,29.94,NW,319,5.0,-999.0,55,0.00,,,0.04,Wunderground v.1.15,2013-02-17 04:38:00,
2013-02-16 23:44:00,28.8,14.2,29.94,NNW,340,5.0,-999.0,54,0.00,,,0.04,Wunderground v.1.15,2013-02-17 04:44:00,
2013-02-16 23:50:00,28.7,14.6,29.94,North,355,6.0,-999.0,55,0.00,,,0.04,Wunderground v.1.15,2013-02-17 04:50:00,
2013-02-16 23:56:00,28.7,14.1,29.95,NNW,344,6.0,-999.0,54,0.00,,,0.04,Wunderground v.1.15,2013-02-17 04:56:00,